Regional Weather Roundup
Issued by NWS

Home | Current Version | Previous Version | Text Only | Print | Product List | Glossary On
Versions: 1 2 3 4 5 6 7 8 9 10 11 12 13 14 15 16 17 18 19 20 21 22 23 24 25 26 27 28 29 30 31 32 33 34 35 36 37 38 39 40 41 42 43 44 45 46 47 48 49 50
000
ASUS43 KBIS 061201
RWRND

NORTH DAKOTA REGIONAL WEATHER ROUNDUP
NATIONAL WEATHER SERVICE BISMARCK ND
600 AM CST FRI MAR 06 2015

NOTE: "FAIR" INDICATES FEW OR NO CLOUDS BELOW 12,000 FEET WITH NO
SIGNIFICANT WEATHER AND/OR OBSTRUCTIONS TO VISIBILITY.


NDZ001>003-009>011-017-061300-
NORTHWEST NORTH DAKOTA

CITY           SKY/WX    TMP DP  RH WIND       PRES   REMARKS
WILLISTON      MOCLDY    17  13  84 CALM      30.06S
6HR MIN TEMP:  15; 6HR MAX TEMP:  31;

MINOT          CLEAR     18  11  74 W12       30.04R WCI   5
MINOT AFB      CLEAR     16  13  88 W9        30.03R WCI   4
$$

NDZ018>021-031>035-040>046-061300-
SOUTHWEST NORTH DAKOTA

CITY           SKY/WX    TMP DP  RH WIND       PRES   REMARKS
BISMARCK       CLEAR     16  12  84 W6        30.08R WCI   7
6HR MIN TEMP:  15; 6HR MAX TEMP:  26;

DICKINSON      PTCLDY    20  13  74 W6        30.03R WCI  12
GARRISON         N/A     15  10  80 NW10      30.05R WCI   2
6HR MIN TEMP:  13; 6HR MAX TEMP:  29;

HETTINGER ARPT CLEAR     20  12  71 CALM      30.07R
$$

NDZ004>008-012>016-024-026-027-054-061300-
NORTHEAST NORTH DAKOTA

CITY           SKY/WX    TMP DP  RH WIND       PRES   REMARKS
GRAND FORKS    CLEAR      8   4  83 W8        30.01R WCI  -4
GRND FRKS AFB  CLEAR     12   6  77 NW8       30.01R WCI   0
DEVILS LAKE    CLEAR     10   3  72 W9        30.02R WCI  -2
$$

NDZ022-023-025-028>030-036>039-047>053-061300-
SOUTHEAST NORTH DAKOTA

CITY           SKY/WX    TMP DP  RH WIND       PRES   REMARKS
FARGO          CLEAR     13   7  77 NW10      30.02R WCI   0
6HR MIN TEMP:  11; 6HR MAX TEMP:  18;

JAMESTOWN      CLEAR     16  11  80 NW8       30.02R WCI   5
$$



USA.gov is the U.S. government's official web portal to all federal, state and local government web resources and services.